Find Starlink 32108

NORAD ID: 59682 Int'l Des: 2024-086 Owner: SPXS Country: US Constellation: starlink operational
LEOCIRCULAR

当前视图

正在加载3D地球...

About Starlink 32108

Starlink 32108 (NORAD 59682) is a starlink constellation satellite (v2 mini) launched May 8, 2024 by SPXS of US. It operates in LEO, CIRCULAR orbit with a mass of 730.00 kg.

关于 Starlink 32108

正在加载描述...

即将过境

Passes for default location (London). Set your location on the main map for personalized predictions.

高度历史

Loading altitude history...

两行轨道根数

1 59682U 24086A 26199.61689124 .00000634 00000-0 32563-4 0 9990
2 59682 43.0046 44.0982 0000924 280.5395 79.5352 15.27576893124082
Epoch: Jul 18, 2026 • Age: 25 hours

当前状态

高度 494.8 km
远地点 / 近地点 N/A
速度 7.62 km/s
星下点 -40.50°S, 114.86°E
发射日期 May 8, 2024
运行时间 2.1 years
类型 internet

技术详情

分类 Payload
质量 730.00 kg
干质量 700.00 kg
总质量 730.00 kg
长度 0.30 m
直径 4.10 m
跨度 29.00 m
形状 Box + pan
制造商 SPXS
平台类型 Starlink V2M
阶段状态 In Orbit
所有者/国家 SPXS/US

Most Searched